Lid_Strength_Index
-1 -1 -2 -2 -1 -2 -2 -2 -1 -2 -2 -2 -2 -1 -1 -2 0 3 1 0 -1 -1 -1 -1 -1 -1 -1 -1 -1 -1 -1 -1 -1
-1 -1 -1 -1 -1 -1 -1 -1 -1 -2 -2 -2 -2 -2 -2 1 0 -0 -0 -0 -2 -2 -2 -1 -1 -2 -2 -2 -2 -2 -2 -2 -2
0 0 0 -0 -1 -1 -1 -1 -1 -1 -2 -2 -2 -2 -2 -0 0 0 0 -2 -2 -2 -2 -2 -2 -2 -2 -2 -2 -2 -2 -2 -2
1 1 1 1 0 0 -0 -0 -1 -1 -1 -1 -2 -2 -2 1 -0 0 -0 -2 -2 -2 -2 -2 -2 -2 -2 -2 -2 -2 -2 -2 -2
2 1 1 1 1 1 1 0 -1 -1 -0 -0 -2 -2 -2 2 1 -0 -1 -2 -2 -2 -2 -2 -2 -2 -2 -2 -2 -2 -2 -2 -2
5 3 2 2 2 2 2 2 0 -1 -1 -0 -1 -1 3 2 0 1 -2 -2 -2 -2 -2 -2 -2 -2 -2 -2 -2 -2 -2 -2 -2
6 4 3 3 3 3 3 3 2 0 3 2 1 4 3 2 1 1 -2 -2 -2 -2 -2 -2 -2 -2 -2 -2 -1 -1 -2 -2 -2
7 8 7 8 4 6 5 5 5 4 4 4 4 4 4 3 2 1 -1 -2 -2 -2 -2 -2 -2 -1 -1 -1 -0 0 -0 -1 -2
9 8 8 8 8 8 6 5 5 5 4 4 5 5 5 4 4 3 0 -0 -0 -0 -0 -0 -0 -1 -0 -0 0 1 0 -1 -2
9 9 8 8 8 8 8 6 4 4 4 4 4 4 5 5 5 5 1 2 2 2 2 1 1 0 -0 0 0 1 0 -0 -1
9 9 8 9 8 8 9 8 6 4 4 4 4 5 6 6 5 6 5 3 3 3 2 2 1 1 0 0 1 1 1 0 -1
8 8 8 8 8 8 8 8 8 6 4 5 5 5 6 6 6 6 6 5 4 4 3 3 2 2 1 1 1 1 1 1 -0
8 8 8 8 8 8 8 8 9 9 9 7 5 5 5 6 6 6 7 7 7 5 5 4 4 3 2 2 2 2 1 1 1
8 8 8 8 8 8 9 9 9 9 9 9 6 5 5 5 5 7 7 7 7 8 6 5 5 5 4 3 3 2 2 2 1
8 8 8 8 8 9 9 9 9 9 10 8 8 7 5 4 5 6 5 6 6 7 7 8 8 6 6 5 4 3 2 2 2
8 8 8 8 8 8 9 9 9 9 9 9 9 8 7 6 5 5 6 6 6 6 7 7 8 9 7 6 5 4 3 2 2
7 7 7 7 7 8 8 8 9 9 9 10 10 10 8 7 6 6 5 6 6 6 6 6 7 8 8 8 7 6 4 3 3
7 7 7 7 7 7 7 8 8 9 9 9 10 11 11 10 7 7 8 7 7 6 6 6 6 7 8 8 7 6 6 4 4
6 6 6 6 6 7 7 7 8 9 10 8 7 9 9 11 11 8 8 7 7 8 7 7 7 7 8 6 7 7 7 5 4
6 6 6 6 6 7 7 8 8 9 9 9 8 9 9 9 10 11 10 8 8 8 8 8 8 7 8 8 7 6 6 6 5